Weather reports worldwide

Advertisment
Norderney, Germany (10113): temperature & dewpoint: 11.06.2019 20:00:00 - 17.06.2019 20:00:00 (CEST)Norderney, Germany (10113): temperature 5cm & temperature -5cm: 11.06.2019 20:00:00 - 17.06.2019 20:00:00 (CEST)Norderney, Germany (10113): temperature -20cm & temperature -100cm: 11.06.2019 20:00:00 - 17.06.2019 20:00:00 (CEST)Norderney, Germany (10113): wind speed & gusts: 11.06.2019 20:00:00 - 17.06.2019 20:00:00 (CEST)Norderney, Germany (10113): wind direction: 11.06.2019 20:00:00 - 17.06.2019 20:00:00 (CEST)Norderney, Germany (10113): reduced air pressure: 11.06.2019 20:00:00 - 17.06.2019 20:00:00 (CEST)Norderney, Germany (10113): visibility: 11.06.2019 20:00:00 - 17.06.2019 20:00:00 (CEST)Norderney, Germany (10113): sunshine duration: 11.06.2019 20:00:00 - 17.06.2019 20:00:00 (CEST)Norderney, Germany (10113): precipitation: 11.06.2019 20:00:00 - 17.06.2019 20:00:00 (CEST)
Date & Time tt [°C] td [°C] tt 5cm [°C] tt -5cm [°C] tt -20cm [°C] tt -100cm [°C] ff [km/h] ff [kn] fx [km/h] fx [kn] dd ppp [hPa] vv [km] sd [min] rr [mm]
17.06.2019 20:00:00 - - - - - - - - - - - - - - -
17.06.2019 19:00:00 21,5 14,8 22,9 29,6 24,1 15,6 18 10 28 15 ENE 1018,4 37 60 0,0
17.06.2019 18:00:00 21,0 15,2 23,3 30,9 23,8 15,6 20 11 30 16 ENE 1018,9 20 60 0,0
17.06.2019 17:00:00 22,3 14,2 25,2 31,4 23,2 15,6 19 10 29 16 ENE 1019,3 42 57 0,0
17.06.2019 16:00:00 20,2 13,1 23,4 31,7 22,4 15,6 23 12 29 15 NE 1019,9 69 60 0,0
17.06.2019 15:00:00 20,1 13,8 23,8 31,3 21,3 15,6 19 11 23 12 NE 1020,2 41 59 0,0
17.06.2019 14:00:00 22,3 12,2 27,8 30,0 20,1 15,6 11 6 21 11 SSW 1020,4 60 60 0,0
17.06.2019 13:00:00 21,9 12,4 27,4 27,7 18,9 15,6 13 7 21 12 SW 1020,8 46 60 0,0
17.06.2019 12:00:00 20,8 12,9 26,0 25,0 17,9 15,6 10 5 17 9 WSW 1021,2 53 60 0,0
17.06.2019 11:00:00 20,0 12,1 24,8 22,1 17,0 15,6 11 6 23 12 SW 1021,5 52 60 0,0
17.06.2019 10:00:00 19,0 12,1 22,3 19,6 16,4 15,6 16 8 24 13 SSW 1021,4 59 60 0,0
17.06.2019 09:00:00 18,0 13,6 20,2 17,4 16,1 15,5 13 7 25 14 S 1021,5 28 60 0,0
17.06.2019 08:00:00 16,7 13,7 18,2 15,4 16,0 15,5 13 7 22 12 S 1021,1 27 53 0,0
17.06.2019 07:00:00 15,1 13,2 14,7 14,6 16,1 15,5 13 7 21 12 S 1020,9 18 44 0,0
17.06.2019 06:00:00 14,6 13,0 13,4 14,3 16,4 15,5 13 7 22 12 S 1021,0 16 27 0,0
17.06.2019 05:00:00 14,6 13,5 13,5 14,5 16,6 15,5 15 8 23 13 S 1020,7 10 0 0,0
17.06.2019 04:00:00 14,6 13,5 13,5 14,7 16,9 15,5 14 8 29 16 S 1020,7 10 0 0,0
17.06.2019 03:00:00 14,8 13,0 13,8 15,0 17,2 15,5 19 10 31 17 S 1020,7 21 0 0,0
17.06.2019 02:00:00 15,2 13,2 14,1 15,5 17,6 15,5 18 10 27 14 SSE 1020,7 25 0 0,0
17.06.2019 01:00:00 15,2 13,7 14,2 15,8 18,0 15,5 15 8 23 13 SSE 1020,7 23 0 0,0
17.06.2019 00:00:00 15,4 14,1 14,3 16,4 18,4 15,5 13 7 21 11 SSE 1020,7 22 0 0,0
16.06.2019 23:00:00 15,9 14,1 14,7 17,0 18,9 15,5 11 6 17 9 SSE 1020,6 27 0 0,0
16.06.2019 22:00:00 16,3 12,0 14,4 18,2 19,3 15,5 7 4 9 5 SSE 1020,5 51 49 0,0
16.06.2019 21:00:00 17,5 11,9 15,8 19,8 19,6 15,5 2 1 12 6 W 1020,5 38 60 0,0
16.06.2019 20:00:00 17,4 11,7 18,2 21,6 19,6 15,5 7 4 13 7 W 1020,6 44 59 0,0
16.06.2019 19:00:00 17,1 13,3 17,3 21,5 19,6 15,5 9 5 16 9 W 1020,5 42 28 0,0
16.06.2019 18:00:00 17,5 13,5 19,7 21,4 19,6 15,5 9 5 19 10 W 1020,3 53 3 0,1
16.06.2019 17:00:00 17,5 13,1 20,4 22,8 19,5 15,5 12 6 18 10 NW 1019,9 63 17 0,0
16.06.2019 16:00:00 17,4 13,9 18,9 22,2 19,4 15,5 16 9 24 13 WNW 1019,9 32 8 0,1
16.06.2019 15:00:00 17,4 12,7 19,1 23,9 19,0 15,5 20 11 24 13 WNW 1019,6 49 28 0,0
16.06.2019 14:00:00 18,1 14,0 22,6 24,7 18,3 15,5 17 9 26 14 WNW 1019,4 49 57 0,0
16.06.2019 13:00:00 17,7 13,8 20,6 22,4 17,7 15,5 23 12 30 16 W 1019,1 35 24 0,0
16.06.2019 12:00:00 19,2 14,4 23,3 22,9 16,8 15,5 16 9 31 17 SSW 1018,5 30 60 0,0
16.06.2019 11:00:00 18,6 13,7 21,8 20,7 16,0 15,5 21 11 30 16 SSW 1018,0 32 60 0,0
16.06.2019 10:00:00 18,1 13,1 20,5 18,4 15,4 15,5 18 10 29 16 S 1017,9 44 60 0,0
16.06.2019 09:00:00 16,9 13,0 19,2 16,2 15,1 15,5 14 8 22 12 S 1017,7 42 60 0,0
16.06.2019 08:00:00 14,9 12,7 14,8 14,1 15,0 15,5 12 7 22 12 S 1017,6 26 55 0,0
16.06.2019 07:00:00 13,9 12,7 12,8 13,3 15,1 15,5 13 7 25 14 S 1017,4 16 59 0,0
16.06.2019 06:00:00 13,5 12,7 12,3 13,2 15,3 15,5 12 6 22 12 S 1017,0 9 10 0,0
16.06.2019 05:00:00 13,3 12,6 12,3 13,3 15,5 15,5 15 8 21 12 S 1017,0 9 0 0,0
16.06.2019 04:00:00 13,6 12,9 12,4 13,4 15,8 15,5 14 8 21 11 S 1016,9 9 0 0,0
16.06.2019 03:00:00 14,2 13,1 12,6 13,5 16,1 15,5 11 6 16 8 S 1017,1 13 0 0,0
16.06.2019 02:00:00 14,8 13,3 11,8 13,8 16,4 15,5 5 3 14 8 SSW 1017,1 32 0 0,0
16.06.2019 01:00:00 15,0 12,8 12,6 14,2 16,8 15,5 8 5 13 7 WSW 1016,4 37 0 0,0
16.06.2019 00:00:00 14,9 12,9 12,6 14,7 17,2 15,5 8 5 18 10 WSW 1015,8 34 0 0,0
15.06.2019 23:00:00 14,5 12,4 12,9 15,3 17,6 15,5 10 5 21 11 WSW 1015,9 35 0 0,0
15.06.2019 22:00:00 14,8 12,5 13,6 16,2 18,0 15,5 18 10 27 15 W 1015,6 24 39 0,0
15.06.2019 21:00:00 15,3 12,4 14,8 17,5 18,3 15,5 26 14 42 23 WNW 1015,5 29 21 0,0
15.06.2019 20:00:00 15,4 12,9 15,9 18,8 18,5 15,5 34 18 46 25 W 1014,7 23 21 0,0
15.06.2019 19:00:00 16,3 14,0 17,4 20,1 18,4 15,5 29 16 40 22 W 1014,1 33 50 0,0
15.06.2019 18:00:00 15,9 14,0 17,0 20,1 18,3 15,5 40 21 49 26 NW 1012,9 42 39 0,0
15.06.2019 17:00:00 15,7 14,4 16,6 19,3 18,3 15,5 40 21 49 26 WNW 1012,1 35 2 0,0
15.06.2019 16:00:00 16,9 15,7 17,0 20,9 17,9 15,5 20 11 29 16 W 1011,3 13 11 0,0
15.06.2019 15:00:00 17,9 16,4 21,1 20,9 17,3 15,4 8 4 13 7 W 1010,8 22 9 0,0
15.06.2019 14:00:00 16,6 16,0 17,4 17,9 17,1 15,4 7 4 11 6 WSW 1010,7 20 0 0,6
15.06.2019 13:00:00 15,8 15,5 15,9 16,8 17,1 15,4 11 6 21 11 NW 1010,4 2,8 0 1,2
15.06.2019 12:00:00 15,7 15,3 15,7 17,0 17,2 15,4 16 9 22 12 NW 1010,1 6 0 0,0
15.06.2019 11:00:00 15,8 15,5 15,8 16,8 17,3 15,4 15 8 24 13 NW 1010,2 3,1 0 6,5
15.06.2019 10:00:00 16,3 14,5 15,9 16,9 17,4 15,4 18 10 39 21 SW 1010,5 26 0 0,0
15.06.2019 09:00:00 16,1 15,5 15,8 17,0 17,5 15,4 25 13 29 16 NE 1008,9 6 0 1,6
15.06.2019 08:00:00 16,8 15,6 15,9 17,0 17,6 15,4 9 5 24 13 SE 1010,6 7 0 1,2
15.06.2019 07:00:00 17,2 14,9 17,0 17,0 17,7 15,3 19 11 28 15 E 1010,3 31 0 0,0
15.06.2019 06:00:00 17,1 15,1 16,7 17,0 17,8 15,3 14 8 23 13 ENE 1010,6 27 0 0,0
15.06.2019 05:00:00 17,1 15,1 16,6 17,0 18,0 15,3 16 9 24 13 ENE 1011,2 26 0 0,0
15.06.2019 04:00:00 16,6 15,1 16,2 17,1 18,2 15,3 16 8 22 12 ENE 1012,3 16 0 0,0
15.06.2019 03:00:00 16,5 15,1 15,8 17,2 18,5 15,3 15 8 21 12 ENE 1012,7 9 0 0,0
15.06.2019 02:00:00 17,3 13,5 16,5 17,4 18,9 15,3 12 7 22 12 E 1013,6 39 0 0,0
15.06.2019 01:00:00 17,2 13,9 16,2 17,8 19,3 15,3 14 7 24 13 E 1014,2 33 0 0,0
15.06.2019 00:00:00 16,7 14,4 15,5 18,5 19,8 15,3 12 6 24 13 E 1014,6 31 0 0,0
14.06.2019 23:00:00 18,1 14,5 16,8 19,5 20,3 15,3 12 7 22 12 E 1014,8 49 0 0,0
14.06.2019 22:00:00 17,6 14,9 16,6 20,9 20,8 15,3 12 7 17 9 ENE 1014,8 41 29 0,0
14.06.2019 21:00:00 18,1 15,0 17,6 22,8 21,0 15,3 13 7 21 11 NE 1014,7 31 59 0,0
14.06.2019 20:00:00 19,3 14,4 20,0 25,3 20,9 15,3 9 5 15 8 NNE 1014,5 46 60 0,0
14.06.2019 19:00:00 22,7 11,5 24,3 26,5 20,5 15,3 10 6 22 12 SW 1014,3 70 60 0,0
14.06.2019 18:00:00 23,0 10,8 24,9 26,8 19,9 15,3 15 8 26 14 S 1014,4 56 60 0,0
14.06.2019 17:00:00 22,5 11,5 25,3 26,3 19,1 15,3 12 7 26 14 SSE 1014,8 64 60 0,0
14.06.2019 16:00:00 20,3 12,6 23,7 23,9 18,5 15,3 16 9 28 15 ESE 1015,1 45 47 0,0
14.06.2019 15:00:00 18,3 13,7 19,6 21,0 18,3 15,3 12 6 18 10 E 1015,3 50 2 0,3
14.06.2019 14:00:00 18,2 13,6 18,5 22,2 17,9 15,3 9 5 12 6 NE 1015,9 37 4 0,0
14.06.2019 13:00:00 19,1 13,1 21,1 22,7 17,3 15,3 6 4 15 8 W 1016,0 44 12 0,0
14.06.2019 12:00:00 19,2 12,1 21,6 21,8 16,4 15,3 6 3 16 9 S 1015,1 72 33 0,0
14.06.2019 11:00:00 18,6 12,6 21,6 20,2 15,7 15,3 11 6 20 11 SSE 1015,0 48 52 0,0
14.06.2019 10:00:00 17,9 13,0 19,5 17,9 15,1 15,3 11 6 26 14 S 1015,0 62 52 0,0
14.06.2019 09:00:00 16,6 12,3 18,8 15,8 14,8 15,3 14 8 27 14 SSE 1014,9 52 60 0,0
14.06.2019 08:00:00 14,8 11,4 16,1 13,8 14,7 15,3 17 9 25 13 SSE 1014,7 47 44 0,0
14.06.2019 07:00:00 13,5 10,5 13,0 12,7 14,9 15,3 16 8 22 12 SSE 1014,3 60 30 0,0
14.06.2019 06:00:00 12,6 10,2 11,7 12,5 15,1 15,3 15 8 25 13 S 1013,9 63 3 0,0
14.06.2019 05:00:00 12,6 10,3 11,4 12,8 15,4 15,3 17 9 25 14 SSE 1013,4 52 0 0,0
14.06.2019 04:00:00 12,7 10,3 11,8 13,0 15,7 15,3 15 8 25 14 S 1013,3 66 0 0,0
14.06.2019 03:00:00 12,9 10,3 11,8 13,4 16,1 15,3 18 10 29 16 S 1013,4 68 0 0,0
14.06.2019 02:00:00 13,3 11,3 12,0 13,9 16,4 15,3 16 9 27 15 SSE 1013,2 75 0 0,0
14.06.2019 01:00:00 14,1 10,9 13,2 14,5 16,8 15,3 18 10 41 22 S 1013,0 75 0 0,0
14.06.2019 00:00:00 14,7 10,8 13,7 14,8 17,2 15,3 23 12 36 19 S 1012,9 66 0 0,0
13.06.2019 23:00:00 14,6 11,5 13,5 15,4 17,7 15,3 16 9 26 14 SSE 1012,2 54 0 0,0
13.06.2019 22:00:00 14,5 11,6 13,1 16,4 18,3 15,4 13 7 25 14 SSE 1012,1 52 13 0,0
13.06.2019 21:00:00 14,5 10,8 13,1 17,9 18,7 15,4 15 8 61 33 SSE 1011,9 53 0 0,8
13.06.2019 20:00:00 18,5 10,1 17,8 20,4 18,8 15,4 12 6 26 14 SW 1011,3 52 13 0,0
13.06.2019 19:00:00 19,0 9,8 18,6 21,9 18,7 15,4 16 8 30 16 SSW 1010,8 73 38 0,0
13.06.2019 18:00:00 19,6 8,3 20,0 22,0 18,4 15,4 18 10 34 18 SSW 1010,9 64 42 0,0
13.06.2019 17:00:00 19,1 8,7 19,8 20,6 18,3 15,4 17 9 45 25 SSW 1011,1 75 4 0,0
13.06.2019 16:00:00 19,0 8,5 19,6 21,9 18,1 15,4 23 12 48 26 S 1011,0 72 20 0,0
13.06.2019 15:00:00 19,5 9,0 21,5 23,3 17,5 15,5 27 15 48 26 S 1010,8 73 52 0,0
13.06.2019 14:00:00 18,9 9,4 20,5 22,6 16,7 15,5 25 13 48 26 SSW 1010,7 68 56 0,0
13.06.2019 13:00:00 18,4 10,0 21,6 21,0 16,0 15,5 24 13 44 24 SSW 1010,7 58 55 0,0
13.06.2019 12:00:00 17,2 10,3 19,8 18,9 15,5 15,5 29 16 47 25 SSW 1010,5 75 47 0,0
13.06.2019 11:00:00 16,5 10,3 17,7 17,8 15,0 15,5 33 18 50 27 S 1010,0 64 52 0,0
13.06.2019 10:00:00 16,5 11,3 18,2 16,7 14,5 15,5 25 14 44 24 S 1009,6 63 60 0,0
13.06.2019 09:00:00 15,3 10,8 16,5 14,9 14,2 15,5 27 15 41 22 S 1009,6 41 60 0,0
13.06.2019 08:00:00 14,4 10,5 15,4 13,0 14,1 15,5 19 10 32 17 S 1009,7 47 60 0,0
13.06.2019 07:00:00 13,3 10,3 12,2 12,1 14,3 15,5 19 10 32 17 SSE 1009,7 49 60 0,0
13.06.2019 06:00:00 12,6 10,0 11,3 12,0 14,5 15,6 13 7 23 13 SSE 1009,4 42 18 0,0
13.06.2019 05:00:00 12,1 9,8 10,9 12,3 14,8 15,6 15 8 26 14 SSE 1009,2 41 0 0,0
13.06.2019 04:00:00 12,5 10,6 11,3 12,7 15,1 15,6 15 8 25 13 S 1009,0 24 0 0,0
13.06.2019 03:00:00 13,1 11,4 11,9 13,1 15,3 15,6 16 8 30 16 S 1009,2 15 0 0,0
13.06.2019 02:00:00 14,3 12,0 13,0 13,5 15,6 15,6 16 9 39 21 SSW 1009,2 14 0 0,0
13.06.2019 01:00:00 14,9 11,7 13,6 13,9 15,8 15,6 23 13 39 21 SSW 1009,1 20 0 0,0
13.06.2019 00:00:00 15,5 11,8 14,2 14,3 16,1 15,6 24 13 41 22 SSW 1009,4 24 0 0,0
12.06.2019 23:00:00 16,0 12,5 14,5 14,9 16,4 15,6 23 12 46 25 SSW 1008,9 29 0 0,0
12.06.2019 22:00:00 16,5 12,8 14,6 15,5 16,6 15,6 24 13 42 23 SSW 1008,1 31 32 0,0
12.06.2019 21:00:00 16,3 14,1 15,1 16,6 16,7 15,6 19 10 48 26 SSW 1007,1 29 0 0,0
12.06.2019 20:00:00 16,1 15,1 16,0 17,3 16,6 15,7 21 11 36 19 S 1006,5 19 0 1,8
12.06.2019 19:00:00 16,7 16,1 16,9 17,3 16,5 15,7 10 6 21 12 ESE 1006,7 6 0 0,0
12.06.2019 18:00:00 15,9 15,6 15,9 16,5 16,5 15,7 14 7 35 19 ENE 1006,5 2,9 0 0,8
12.06.2019 17:00:00 15,2 14,8 15,1 16,4 16,6 15,7 17 9 31 17 ENE 1007,7 2,2 0 2,5
12.06.2019 16:00:00 14,8 14,4 14,8 16,4 16,7 15,7 22 12 26 14 NNE 1008,0 3,1 0 2,6
12.06.2019 15:00:00 14,6 14,2 14,5 16,7 16,7 15,7 20 11 29 16 NE 1009,1 3,4 0 2,2
12.06.2019 14:00:00 14,6 13,9 15,0 17,8 16,7 15,7 26 14 41 22 NNE 1008,8 10 0 0,0
12.06.2019 13:00:00 14,4 13,4 15,9 18,4 16,4 15,7 32 17 36 19 NNE 1009,2 10 0 0,0
12.06.2019 12:00:00 14,5 13,0 16,0 18,6 16,0 15,7 21 11 29 16 NNE 1010,5 20 7 0,0
12.06.2019 11:00:00 14,2 13,5 15,2 17,2 15,8 15,7 26 14 35 19 NE 1010,6 10 0 0,0
12.06.2019 10:00:00 13,9 13,5 15,3 16,7 15,4 15,7 29 16 34 18 NE 1010,8 1,9 1 0,0
12.06.2019 09:00:00 13,4 13,0 14,6 15,5 15,2 15,7 24 13 28 15 NNE 1010,9 1,4 24 0,0
12.06.2019 08:00:00 15,2 11,2 16,0 13,5 15,2 15,7 12 7 16 9 NE 1010,6 10 25 0,0
12.06.2019 07:00:00 13,3 11,5 11,7 13,0 15,4 15,7 5 3 8 4 E 1010,2 18 20 0,0
12.06.2019 06:00:00 12,8 12,1 11,4 12,9 15,7 15,7 9 5 12 7 ENE 1011,2 13 0 0,0
12.06.2019 05:00:00 12,9 12,2 11,3 13,2 15,9 15,7 7 4 17 9 ESE 1011,8 9 0 0,0
12.06.2019 04:00:00 13,1 11,9 11,7 13,5 16,2 15,7 10 5 18 10 E 1012,9 34 0 0,0
12.06.2019 03:00:00 14,0 12,1 12,4 13,8 16,5 15,7 9 5 14 8 NE 1013,0 32 0 0,0
12.06.2019 02:00:00 14,8 11,5 12,6 14,1 16,9 15,7 11 6 23 12 WNW 1012,3 36 0 0,0
12.06.2019 01:00:00 14,7 10,9 11,4 14,4 17,3 15,7 5 3 11 6 W 1012,3 33 0 0,0
12.06.2019 00:00:00 14,7 10,6 12,3 15,0 17,7 15,7 7 4 17 9 WSW 1012,3 43 0 0,0
11.06.2019 23:00:00 14,8 12,0 13,0 15,8 18,1 15,7 9 5 18 10 WSW 1013,2 32 0 0,0
11.06.2019 22:00:00 15,2 12,3 13,9 16,8 18,5 15,7 13 7 24 13 W 1012,6 26 24 0,0
11.06.2019 21:00:00 15,4 12,3 14,7 17,9 18,8 15,7 18 10 27 15 W 1012,6 35 60 0,0
11.06.2019 20:00:00 16,1 13,1 16,2 19,6 18,9 15,7 19 10 33 18 W 1012,3 23 38 0,0

tt = temperature
td = dewpoint
tt 5cm = temperature 5cm
tt -5cm = temperature -5cm
tt -20cm = temperature -20cm
tt -100cm = temperature -100cm
ff = wind speed
fx = gusts
dd = wind direction
ppp = reduced air pressure
vv = visibility
sd = sunshine duration
rr = precipitation

Next stations